Regional Weather Roundup
Issued by NWS Bismarck, ND

Home | Current Version | Previous Version | Text Only | Print | Product List | Glossary On
Versions: 1 2 3 4 5 6 7 8 9 10 11 12 13 14 15 16 17 18 19 20 21 22 23 24 25 26 27 28 29 30 31 32 33 34 35 36 37 38 39 40 41 42 43 44 45 46 47 48 49 50
000
ASUS43 KBIS 041310
RWRBIS

NWR BROADCAST TEXT
NATIONAL WEATHER SERVICE BISMARCK ND
800 AM CDT MON MAY 04 2015

NOTE: "FAIR" INDICATES FEW OR NO CLOUDS BELOW 12,000 FEET WITH NO
SIGNIFICANT WEATHER AND/OR OBSTRUCTIONS TO VISIBILITY.


CITY           SKY/WX    TMP DP  RH WIND       PRES   REMARKS
WILLISTON      MOSUNNY   40  27  59 NE5       30.16R
MINOT          SUNNY     40  30  67 SE3       30.17R
MINOT AFB      SUNNY     41  35  80 S2        30.16R
BISMARCK       CLOUDY    39  30  70 NE3       30.21R
DICKINSON      PTSUNNY   42  30  62 SE9       30.17R
GARRISON         N/A     40  33  76 CALM      30.18R
HETTINGER ARPT CLOUDY    44  27  51 SE6       30.20R
JAMESTOWN      CLOUDY    43  30  60 N7        30.19R
BEACH          FAIR      41  32  70 SE9       30.17R
CARRINGTON     FAIR      41  32  70 NW5       30.21R
CROSBY         FAIR      37  36  93 CALM      30.18R
HARVEY         FAIR      39  32  75 CALM      30.20R
HAZEN          FAIR      34  28  80 CALM      30.20R
LINTON         FAIR      39  32  75 CALM      30.21R
MANDAN         FAIR      43  28  56 S6        30.21R
OAKES            N/A     41  32  70 NW3       30.19R
STANLEY        FAIR      37  34  87 CALM      30.19R
WATFORD CITY   FAIR      41  27  56 NE3       30.14R
$$

CITY           SKY/WX    TMP DP  RH WIND       PRES   REMARKS
GRAND FORKS    MOSUNNY   44  36  73 N3        30.20R
GRAND FORKS AF SUNNY     44  35  72 N3        30.20R
DEVILS LAKE    SUNNY     45  36  70 CALM      30.19R
FARGO          PTSUNNY   47  31  53 NE5       30.19R
CANDO          FAIR      39  32  75 CALM      30.20R
CAVALIER       FAIR      45  37  76 S5        30.20R
GRAFTON        FAIR      45  37  76 CALM      30.21R
GWINNER        SUNNY     48  30  49 N6        30.20R
LANGDON        FAIR      45  37  76 S8        30.19R
WALHALLA       FAIR      46  41  81 SW3       30.19R
$$

CITY           SKY/WX    TMP DP  RH WIND       PRES   REMARKS
ABERDEEN       SUNNY     46  31  55 N5        30.19S
MOBRIDGE       CLOUDY    48  30  49 CALM      30.18R
BUFFALO          N/A     47  29  49 SE14      30.11R
RAPID CITY     RAIN      44  41  89 W5        30.21R FOG
GLASGOW        SUNNY     43  24  47 E15       30.06S
SIDNEY         SUNNY     43  28  56 CALM      30.15R
WOLF POINT     SUNNY     39  26  59 E7        30.12R
GLENDIVE       SUNNY     45  28  53 E6        30.14R
MILES CITY     CLOUDY    48  32  53 E8        30.07R
BAKER          PTSUNNY   43  30  60 SE13      30.15R
$$

CITY           SKY/WX    TMP DP  RH WIND       PRES   REMARKS
BILLINGS       PTCLDY    44  36  73 W3        30.00R
GREAT FALLS    CLEAR     37  28  70 CALM      29.95R
REGINA         MOSUNNY   37  32  81 SE6       30.15R
ESTEVAN        MOSUNNY   41  36  81 E2        30.17R
$$




USA.gov is the U.S. government's official web portal to all federal, state and local government web resources and services.